When you browse on this site, cookies collect data to enhance your experience and personalize the content and advertising you see.
Visit our Privacy Policy to learn more. By continuing to use the site, you agree to this use of cookies and data.
  • în România
  • Lista ţărilor
  • Pe 7 zile
  • Temperatura apei
  • Hartă satelitară
  • Meteo pe hartă
  • Widget-uri
  • user-avatar
    Intrare

    Meteo pe oră la Epifan

    Astăzi, 26 Martie, Marţi

    Timp Temperatura Precipitaţii Vânt Presiune Umiditate
    00:00 -5°C° 0 mm 3 m/s 738 mmHg 87%
    01:00 -4°C° 0 mm 3 m/s 738 mmHg 87%
    02:00 -4°C° 0 mm 3 m/s 737 mmHg 86%
    03:00 -2°C° 0 mm 3 m/s 737 mmHg 83%
    04:00 -2°C° 0 mm 3 m/s 737 mmHg 85%
    05:00 -2°C° 0 mm 3 m/s 736 mmHg 86%
    06:00 -2°C° 0 mm 3 m/s 736 mmHg 88%
    07:00 -2°C° 0 mm 2 m/s 736 mmHg 90%
    08:00 -1°C° 0 mm 2 m/s 736 mmHg 93%
    09:00 -1°C° 0 mm 3 m/s 736 mmHg 92%
    10:00 -1°C° 0 mm 3 m/s 736 mmHg 95%
    11:00 0°C° 0 mm 3 m/s 736 mmHg 97%
    12:00 0°C° 0 mm 3 m/s 736 mmHg 100%
    13:00 0°C° 0 mm 3 m/s 736 mmHg 100%
    14:00 0°C° 0 mm 3 m/s 736 mmHg 100%
    15:00 -1°C° 0 mm 4 m/s 736 mmHg 100%
    16:00 -1°C° 0 mm 4 m/s 736 mmHg 99%
    17:00 -2°C° 0 mm 4 m/s 736 mmHg 99%
    18:00 -2°C° 0 mm 4 m/s 737 mmHg 99%
    19:00 -2°C° 0 mm 4 m/s 737 mmHg 98%
    20:00 -2°C° 0 mm 4 m/s 737 mmHg 97%
    21:00 -3°C° 0 mm 4 m/s 738 mmHg 96%
    22:00 -2°C° 0 mm 3 m/s 738 mmHg 95%
    23:00 -4°C° 0 mm 3 m/s 738 mmHg 94%

    Mâine, 27 Martie, Miercuri

    Timp Temperatura Precipitaţii Vânt Presiune Umiditate
    00:00 -4°C° 0 mm 2 m/s 739 mmHg 93%
    01:00 -5°C° 0 mm 2 m/s 739 mmHg 92%
    02:00 -6°C° 0 mm 2 m/s 739 mmHg 90%
    03:00 -6°C° 0 mm 2 m/s 739 mmHg 89%
    04:00 -7°C° 0 mm 2 m/s 740 mmHg 88%
    05:00 -7°C° 0 mm 2 m/s 740 mmHg 87%
    06:00 -7°C° 0 mm 2 m/s 740 mmHg 87%
    07:00 -6°C° 0 mm 2 m/s 740 mmHg 87%
    08:00 -5°C° 0 mm 2 m/s 741 mmHg 87%
    09:00 -3°C° 0 mm 1 m/s 741 mmHg 87%
    10:00 -2°C° 0 mm 1 m/s 742 mmHg 88%
    11:00 -1°C° 0 mm 1 m/s 742 mmHg 90%
    12:00 0°C° 0 mm 1 m/s 743 mmHg 91%
    13:00 +1°C° 0 mm 1 m/s 743 mmHg 94%
    14:00 +1°C° 0 mm 1 m/s 743 mmHg 97%
    15:00 -1°C° 0 mm 2 m/s 743 mmHg 99%
    16:00 -2°C° 0 mm 2 m/s 743 mmHg 98%
    17:00 -2°C° 0 mm 2 m/s 743 mmHg 96%
    18:00 -3°C° 0 mm 2 m/s 744 mmHg 94%
    19:00 -4°C° 0 mm 2 m/s 744 mmHg 92%
    20:00 -4°C° 0 mm 2 m/s 745 mmHg 90%
    21:00 -6°C° 0 mm 3 m/s 745 mmHg 88%
    22:00 -7°C° 0 mm 3 m/s 745 mmHg 88%
    23:00 -7°C° 0 mm 3 m/s 745 mmHg 88%

    Poimâine, 28 Martie, Joi

    Timp Temperatura Precipitaţii Vânt Presiune Umiditate
    00:00 -8°C° 0 mm 3 m/s 746 mmHg 87%
    01:00 -8°C° 0 mm 3 m/s 746 mmHg 89%
    02:00 -8°C° 0 mm 3 m/s 746 mmHg 90%
    03:00 -9°C° 0 mm 3 m/s 746 mmHg 91%
    04:00 -9°C° 0 mm 3 m/s 746 mmHg 92%
    05:00 -9°C° 0 mm 3 m/s 746 mmHg 93%
    06:00 -9°C° 0 mm 3 m/s 747 mmHg 94%
    07:00 -9°C° 0 mm 4 m/s 747 mmHg 93%
    08:00 -8°C° 0 mm 4 m/s 747 mmHg 92%
    09:00 -7°C° 0 mm 5 m/s 748 mmHg 91%
    10:00 -6°C° 0 mm 5 m/s 748 mmHg 90%
    11:00 -5°C° 0 mm 5 m/s 748 mmHg 89%
    12:00 -4°C° 0 mm 5 m/s 749 mmHg 88%
    13:00 -4°C° 0 mm 5 m/s 749 mmHg 87%
    14:00 -4°C° 0 mm 5 m/s 749 mmHg 86%
    15:00 -2°C° 0 mm 5 m/s 749 mmHg 85%
    16:00 -3°C° 0 mm 4 m/s 749 mmHg 85%
    17:00 -3°C° 0 mm 4 m/s 749 mmHg 85%
    18:00 -2°C° 0 mm 3 m/s 749 mmHg 85%
    19:00 -5°C° 0 mm 3 m/s 749 mmHg 84%
    20:00 -6°C° 0 mm 3 m/s 749 mmHg 84%
    21:00 -7°C° 0 mm 3 m/s 749 mmHg 83%
    22:00 -7°C° 0 mm 3 m/s 749 mmHg 82%
    23:00 -7°C° 0 mm 3 m/s 749 mmHg 82%

    29 Martie, Vineri

    Timp Temperatura Precipitaţii Vânt Presiune Umiditate
    00:00 -8°C° 0 mm 3 m/s 749 mmHg 82%
    01:00 -7°C° 0 mm 3 m/s 748 mmHg 84%
    02:00 -6°C° 0 mm 3 m/s 748 mmHg 86%
    03:00 -5°C° 0 mm 3 m/s 748 mmHg 88%
    04:00 -5°C° 0 mm 3 m/s 748 mmHg 89%
    05:00 -6°C° 0 mm 3 m/s 747 mmHg 90%
    06:00 -6°C° 0 mm 3 m/s 747 mmHg 90%
    07:00 -5°C° 0.1 mm 3 m/s 747 mmHg 92%
    08:00 -2°C° 0.1 mm 3 m/s 747 mmHg 94%
    09:00 -1°C° 0.1 mm 3 m/s 747 mmHg 95%
    10:00 -1°C° 0.1 mm 3 m/s 747 mmHg 97%
    11:00 -1°C° 0.1 mm 3 m/s 747 mmHg 98%
    12:00 0°C° 0.1 mm 3 m/s 746 mmHg 100%
    13:00 0°C° 0 mm 3 m/s 746 mmHg 100%
    14:00 0°C° 0 mm 3 m/s 746 mmHg 99%
    15:00 0°C° 0 mm 3 m/s 746 mmHg 99%
    16:00 0°C° 0 mm 3 m/s 746 mmHg 99%
    17:00 0°C° 0 mm 3 m/s 746 mmHg 99%
    18:00 0°C° 0 mm 3 m/s 746 mmHg 99%
    19:00 0°C° 0 mm 3 m/s 746 mmHg 98%
    20:00 -1°C° 0 mm 3 m/s 746 mmHg 98%
    21:00 -1°C° 0 mm 3 m/s 746 mmHg 97%
    22:00 -1°C° 0 mm 3 m/s 746 mmHg 95%
    23:00 -2°C° 0 mm 3 m/s 746 mmHg 94%

    30 Martie, Sâmbătă

    Timp Temperatura Precipitaţii Vânt Presiune Umiditate
    00:00 -2°C° 0 mm 3 m/s 746 mmHg 93%
    01:00 -2°C° 0 mm 3 m/s 746 mmHg 93%
    02:00 -2°C° 0 mm 3 m/s 745 mmHg 93%
    03:00 -1°C° 0 mm 3 m/s 745 mmHg 92%
    04:00 -1°C° 0 mm 3 m/s 745 mmHg 92%
    05:00 -2°C° 0 mm 4 m/s 745 mmHg 92%
    06:00 -2°C° 0 mm 4 m/s 744 mmHg 92%
    07:00 -1°C° 0 mm 4 m/s 744 mmHg 95%
    08:00 -1°C° 0 mm 4 m/s 744 mmHg 97%
    09:00 0°C° 0 mm 4 m/s 744 mmHg 99%
    10:00 0°C° 0 mm 4 m/s 744 mmHg 99%
    11:00 0°C° 0 mm 5 m/s 744 mmHg 99%
    12:00 0°C° 0 mm 5 m/s 744 mmHg 99%
    13:00 +1°C° 0 mm 5 m/s 743 mmHg 99%
    14:00 +1°C° 0 mm 5 m/s 743 mmHg 99%
    15:00 +1°C° 0 mm 5 m/s 743 mmHg 99%
    16:00 +1°C° 0 mm 4 m/s 743 mmHg 99%
    17:00 +1°C° 0 mm 4 m/s 743 mmHg 99%
    18:00 +1°C° 0 mm 4 m/s 743 mmHg 99%
    19:00 +1°C° 0 mm 4 m/s 743 mmHg 98%
    20:00 +1°C° 0 mm 3 m/s 744 mmHg 96%
    21:00 +1°C° 0 mm 3 m/s 744 mmHg 95%
    22:00 +1°C° 0 mm 3 m/s 744 mmHg 92%
    23:00 +1°C° 0 mm 3 m/s 744 mmHg 89%

    31 Martie, Duminică

    Timp Temperatura Precipitaţii Vânt Presiune Umiditate
    00:00 +1°C° 0 mm 3 m/s 744 mmHg 86%
    01:00 +1°C° 0 mm 3 m/s 744 mmHg 86%
    02:00 +1°C° 0 mm 3 m/s 744 mmHg 86%
    03:00 +1°C° 0 mm 3 m/s 744 mmHg 86%
    04:00 +1°C° 0 mm 3 m/s 744 mmHg 87%
    05:00 0°C° 0 mm 3 m/s 744 mmHg 87%
    06:00 0°C° 0 mm 3 m/s 743 mmHg 88%
    07:00 0°C° 0 mm 3 m/s 743 mmHg 91%
    08:00 +1°C° 0 mm 3 m/s 743 mmHg 95%
    09:00 +1°C° 0 mm 3 m/s 743 mmHg 99%
    10:00 +1°C° 0 mm 3 m/s 743 mmHg 99%
    11:00 +1°C° 0 mm 4 m/s 743 mmHg 98%
    12:00 +1°C° 0 mm 4 m/s 743 mmHg 98%
    13:00 +3°C° 0 mm 4 m/s 743 mmHg 97%
    14:00 +3°C° 0 mm 4 m/s 742 mmHg 97%
    15:00 +4°C° 0 mm 4 m/s 742 mmHg 96%
    16:00 +4°C° 0 mm 4 m/s 742 mmHg 95%
    17:00 +3°C° 0 mm 3 m/s 743 mmHg 95%
    18:00 +3°C° 0 mm 3 m/s 743 mmHg 95%
    19:00 +3°C° 0 mm 3 m/s 743 mmHg 92%
    20:00 +2°C° 0 mm 3 m/s 743 mmHg 89%
    21:00 +3°C° 0 mm 2 m/s 744 mmHg 87%
    22:00 +3°C° 0 mm 2 m/s 744 mmHg 85%
    23:00 +4°C° 0 mm 1 m/s 744 mmHg 84%
    Arată mai mult